User: anonymous   Login
Location: Newark
(49.3000°N, 9.4667°E)
Time: 16:28:40
(UTC+00:00)
Language:

S-56A Canister/Altair - Orbit

View from above orbital plane
View from above orbital plane
View from above satellite
View from above satellite

Ground track
Ground track

The orbit data is extracted from the following two-line orbital elements,

1    82U 61004B   19144.63484526 -.00000010 +00000-0 +36261-4 0  9992
2    82 038.8553 201.7919 1174728 002.1467 358.3715 12.26034215759967
Epoch (UTC): 24 May 2019 15:14:10
Eccentricity: 0.1174728
inclination: 38.8553°
perigee height: 633 km
apogee height: 2499 km
right ascension of ascending node: 201.7919°
argument of perigee: 2.1467°
revolutions per day: 12.26034215
mean anomaly at epoch: 358.3715°
orbit number at epoch: 75996

The dashed part of the orbit path shows where the satellite is in the earth's shadow,  

DLR